This is the latest recevied weather packets stored in our database for station/object W3AJR. If no packets are shown the sender has not sent any weather packets the latest 10 day(s).
| Time | Temp. | Humidity | Pressure | Rain* | Wind** | Luminosity | Snow |
|---|---|---|---|---|---|---|---|
| 1778184464 | 16.11° C | 64% | 1008.6 hPa | 0 mm | - | 567 W/m² | - |
| 1778184160 | 15.56° C | 64% | 1008.9 hPa | 0 mm | - | 568 W/m² | - |
| 1778183856 | 16.11° C | 64% | 1008.6 hPa | 0 mm | - | 557 W/m² | - |
| 1778183554 | 16.11° C | 62% | 1009.1 hPa | 0 mm | - | 578 W/m² | - |
| 1778183251 | 15.56° C | 63% | 1009 hPa | 0 mm | - | 666 W/m² | - |
| 1778182947 | 14.44° C | 63% | 1009.2 hPa | 0 mm | - | 740 W/m² | - |
| 1778182644 | 15.56° C | 63% | 1009 hPa | 0 mm | - | 711 W/m² | - |
| 1778182340 | 15.56° C | 62% | 1009.3 hPa | 0 mm | - | 425 W/m² | - |
| 1778182037 | 15° C | 62% | 1009.5 hPa | 0 mm | - | 738 W/m² | - |
| 1778181734 | 15° C | 65% | 1009.7 hPa | 0 mm | - | 428 W/m² | - |
| 1778181429 | 14.44° C | 66% | 1009.6 hPa | 0 mm | - | 413 W/m² | - |
| 1778181127 | 14.44° C | 65% | 1009.7 hPa | 0 mm | - | 551 W/m² | - |
| 1778180824 | 13.89° C | 69% | 1009.5 hPa | 0 mm | - | 520 W/m² | - |
| 1778180522 | 13.89° C | 70% | 1009.5 hPa | 0 mm | - | 436 W/m² | - |
| 1778180220 | 13.89° C | 70% | 1009.8 hPa | 0 mm | - | 322 W/m² | - |
| 1778179917 | 14.44° C | 71% | 1009.7 hPa | 0 mm | - | 666 W/m² | - |
| 1778179614 | 14.44° C | 66% | 1009.6 hPa | 0 mm | - | 534 W/m² | - |
| 1778179312 | 14.44° C | 65% | 1009.6 hPa | 0 mm | - | 266 W/m² | - |
| 1778179008 | 13.89° C | 67% | 1010.1 hPa | 0 mm | - | 820 W/m² | - |
| 1778178705 | 13.33° C | 66% | 1010.2 hPa | 0 mm | - | 312 W/m² | - |
| 1778178403 | 14.44° C | 67% | 1010.3 hPa | 0 mm | - | 463 W/m² | - |
| 1778178098 | 15° C | 66% | 1010.2 hPa | 0 mm | - | 725 W/m² | - |
| 1778177794 | 15° C | 67% | 1010.2 hPa | 0 mm | - | 1007 W/m² | - |
| 1778177491 | 13.33° C | 70% | 1010.3 hPa | 0 mm | - | 276 W/m² | - |
| 1778177187 | 13.33° C | 71% | 1010.5 hPa | 0 mm | - | 233 W/m² | - |
* Rain latest hour (hover to see other rain measurements)
** Current wind speed in m/s (hover to see current wind gust speed)